Tracking 19827 objects as of 21-Aug-2019
HD Live streaming from Space Station
objects crossing your sky now

COSMOS 2192

Track COSMOS 2192 now!
10-day predictions
COSMOS 2192 is classified as:


NORAD ID: 21981
Int'l Code: 1992-030F
Perigee: 1,479.0 km
Apogee: 1,492.3 km
Inclination: 74.0 °
Period: 115.5 minutes
Semi major axis: 7856 km
RCS: 0.6788 m2 (medium)
Launch date: June 3, 1992
Source: Commonwealth of Independent States (former USSR) (CIS)
Launch site: PLESETSK MISSILE AND SPACE COMPLEX (PKMTR)
aabbcc
Your satellite tracking list
Your tracking list is empty




NASA's NSSDC Master Catalog

Two Line Element Set (TLE):
1 21981U 92030F   19232.95423521 -.00000018 +00000-0 -18452-4 0  9998
2 21981 074.0015 086.0175 0008494 129.7144 335.0109 12.46652877238518
Source of the keplerian elements: AFSPC